Regional Weather Roundup
Issued by NWS

Home | Current Version | Previous Version | Text Only | Print | Product List | Glossary Off
Versions: 1 2 3 4 5 6 7 8 9 10 11 12 13 14 15 16 17 18 19 20 21 22 23 24 25 26 27 28 29 30 31 32 33 34 35 36 37 38 39 40 41 42 43 44 45 46 47 48 49 50

000
ASUS43 KFSD 271702
RWRSD

WEATHER ROUNDUP FOR SOUTH DAKOTA
NATIONAL WEATHER SERVICE SIOUX FALLS SD
1200 PM CDT THU APR 27 2017

NOTE: "FAIR" INDICATES FEW OR NO CLOUDS BELOW 12,000 FEET WITH NO
SIGNIFICANT WEATHER AND/OR OBSTRUCTIONS TO VISIBILITY.


SDZ001>005-009-010-012>017-271800-
NORTHWEST AND NORTH CENTRAL SOUTH DAKOTA

CITY           SKY/WX    TMP DP  RH WIND       PRES   REMARKS
BUFFALO          N/A     38  30  73 E14       29.61S
FAITH            N/A     35  27  72 CALM      29.71R
MOBRIDGE       MOSUNNY   45  26  47 N10       29.70R
$$

SDZ012>016-024>037-041>051-057-063-072>074-271800-
SOUTHWEST AND SOUTH CENTRAL SOUTH DAKOTA

CITY           SKY/WX    TMP DP  RH WIND       PRES   REMARKS
RAPID CTY ARPT CLOUDY    42  32  67 SE7       29.66S
PIERRE         CLOUDY    39  28  64 N9        29.72S
CUSTER         CLOUDY    34  28  79 E10       29.59S WCI  26
ELLSWORTH AFB  PTSUNNY   42  35  74 E8        29.65
PHILIP         CLOUDY    35  30  82 E6        29.73R
PINE RIDGE     PTSUNNY   49  35  58 NE13      29.62F
SPEARFISH      PTSUNNY   39  34  81 E12       29.62S
WINNER         FAIR      42  30  62 VRB5      29.72S
$$

SDZ004>011-016>023-039-040-271800-
NORTHEAST SOUTH DAKOTA

CITY           SKY/WX    TMP DP  RH WIND       PRES   REMARKS
ABERDEEN       MOSUNNY   35  22  58 N21       29.74R WCI  24
WATERTOWN      CLOUDY    32  25  75 N20       29.67R WCI  20
BROOKINGS      CLOUDY    33  24  69 N18       29.68R WCI  22
SISSETON         N/A     32  25  75 N18G29    29.69R WCI  20
$$

SDZ017-020-022-023-036>040-048>070-271800-
SOUTHEAST SOUTH DAKOTA

CITY           SKY/WX    TMP DP  RH WIND       PRES   REMARKS
SIOUX FALLS    CLOUDY    38  29  70 NW17      29.70S
HURON          CLOUDY    37  27  67 N15       29.73S
CHAMBERLAIN    PTSUNNY   43  31  61 N6        29.72S
MITCHELL       CLOUDY    41  28  60 N13       29.74S
YANKTON        CLOUDY    39  27  60 NW15      29.72S
$$

ABBREVIATIONS USED IN REMARKS
   TC - TEMPERATURE IN CELSIUS
  WCI - WIND CHILL INDEX
   HX - HEAT INDEX
  VSB - VISIBILITY




USA.gov is the U.S. government's official web portal to all federal, state and local government web resources and services.